This is the latest recevied weather packets stored in our database for station/object KE4AMH. If no packets are shown the sender has not sent any weather packets the latest 10 day(s).
| Time | Temp. | Humidity | Pressure | Rain* | Wind** | Luminosity | Snow |
|---|---|---|---|---|---|---|---|
| 1778136175 | 17.22° C | 99% | 1012.3 hPa | 2.29 mm | - | 0 W/m² | - |
| 1778135873 | 17.22° C | 99% | 1011.5 hPa | 3.56 mm | - | 0 W/m² | - |
| 1778135569 | 17.22° C | 99% | 1011.8 hPa | 3.56 mm | - | 0 W/m² | - |
| 1778135266 | 17.22° C | 99% | 1012 hPa | 1.78 mm | - | 0 W/m² | - |
| 1778134963 | 17.22° C | 99% | 1012.3 hPa | 1.78 mm | - | 0 W/m² | - |
| 1778134661 | 17.22° C | 99% | 1012.3 hPa | 3.05 mm | - | 0 W/m² | - |
| 1778134359 | 17.22° C | 99% | 1012.5 hPa | 6.1 mm | - | 0 W/m² | - |
| 1778134057 | 17.22° C | 99% | 1012.6 hPa | 5.33 mm | - | 0 W/m² | - |
| 1778133753 | 17.22° C | 99% | 1013.1 hPa | 3.05 mm | - | 0 W/m² | - |
| 1778133450 | 17.22° C | 99% | 1013.1 hPa | 1.27 mm | - | 0 W/m² | - |
| 1778133145 | 17.22° C | 99% | 1012.8 hPa | 0.51 mm | - | 0 W/m² | - |
| 1778132841 | 17.78° C | 99% | 1012.6 hPa | 2.29 mm | - | 0 W/m² | - |
| 1778132539 | 17.22° C | 99% | 1012.7 hPa | 4.32 mm | - | 0 W/m² | - |
| 1778132236 | 17.78° C | 99% | 1013 hPa | 5.33 mm | - | 0 W/m² | - |
| 1778131934 | 17.78° C | 99% | 1013.5 hPa | 4.83 mm | - | 0 W/m² | - |
| 1778131632 | 17.78° C | 99% | 1013.4 hPa | 4.32 mm | - | 0 W/m² | - |
| 1778131328 | 17.78° C | 99% | 1013.6 hPa | 4.83 mm | - | 0 W/m² | - |
| 1778131026 | 17.78° C | 99% | 1013.1 hPa | 6.1 mm | - | 0 W/m² | - |
| 1778130723 | 17.78° C | 99% | 1013.6 hPa | 10.67 mm | - | 0 W/m² | - |
| 1778130419 | 17.78° C | 99% | 1013.6 hPa | 8.38 mm | - | 0 W/m² | - |
| 1778130116 | 17.78° C | 99% | 1013.7 hPa | 4.32 mm | - | 0 W/m² | - |
| 1778129813 | 17.78° C | 99% | 1013 hPa | 6.1 mm | - | 0 W/m² | - |
| 1778129509 | 17.78° C | 99% | 1013.4 hPa | 3.05 mm | - | 0 W/m² | - |
| 1778129207 | 17.78° C | 99% | 1013 hPa | 0.51 mm | - | 0 W/m² | - |
| 1778128903 | 17.78° C | 99% | 1012.8 hPa | 0.51 mm | - | 0 W/m² | - |
* Rain latest hour (hover to see other rain measurements)
** Current wind speed in m/s (hover to see current wind gust speed)